Regional Weather Roundup
Issued by NWS

Home | Current Version | Previous Version | Graphics & Text | Print | Product List | Glossary On
Versions: 1 2 3 4 5 6 7 8 9 10 11 12 13 14 15 16 17 18 19 20 21 22 23 24 25 26 27 28 29 30 31 32 33 34 35 36 37 38 39 40 41 42 43 44 45 46 47 48 49 50
000
ASUS43 KBIS 170202
RWRND

NORTH DAKOTA REGIONAL WEATHER ROUNDUP
NATIONAL WEATHER SERVICE BISMARCK ND
800 PM CST THU NOV 16 2017

NOTE: "FAIR" INDICATES FEW OR NO CLOUDS BELOW 12,000 FEET WITH NO
SIGNIFICANT WEATHER AND/OR OBSTRUCTIONS TO VISIBILITY.


NDZ001>003-009>011-017-170300-
NORTHWEST NORTH DAKOTA

CITY           SKY/WX    TMP DP  RH WIND       PRES   REMARKS
WILLISTON      MOCLDY    31  24  75 CALM      29.49S
MINOT          MOCLDY    30  24  78 SE3       29.50S
$$

NDZ018>021-031>035-040>046-170300-
SOUTHWEST NORTH DAKOTA

CITY           SKY/WX    TMP DP  RH WIND       PRES   REMARKS
BISMARCK       CLOUDY    42  30  62 SE9       29.53F
DICKINSON      PTCLDY    29  23  78 SW9       29.51R
GARRISON         N/A     31  26  82 SW7       29.53R
HETTINGER ARPT CLOUDY    35  26  69 CALM      29.51S
$$

NDZ004>008-012>016-024-026-027-054-170300-
NORTHEAST NORTH DAKOTA

CITY           SKY/WX    TMP DP  RH WIND       PRES   REMARKS
GRAND FORKS    CLOUDY    32  27  81 S20G30    29.70F
GRND FRKS AFB  CLOUDY    31  26  83 S26G35    29.68F WCI  16
DEVILS LAKE    CLOUDY    28  24  85 SE21      29.57F WCI  15
$$

NDZ022-023-025-028>030-036>039-047>053-170300-
SOUTHEAST NORTH DAKOTA

CITY           SKY/WX    TMP DP  RH WIND       PRES   REMARKS
FARGO          CLOUDY    32  25  75 SE28G47   29.72F WCI  18
JAMESTOWN      CLOUDY    30  25  81 SE15      29.60F WCI  19
$$





USA.gov is the U.S. government's official web portal to all federal, state and local government web resources and services.